{"data":{"norad_id":61910,"intl_designator":"2024-206A","name":"KOREASAT 6A","alt_names":[],"object_type":"PAYLOAD","status":"ACTIVE","operator":null,"country":"SKOR","launch_date":"2024-11-11","launch_site_code":"AFETR","launch_vehicle":null,"mission":null,"orbit_class":"UNKNOWN","rcs_meters":null,"size_class":null,"mass_kg":null,"dimensions":null,"purposes":["comms"],"wikipedia_slug":null,"has_3d_model":false,"image_url":null,"decayed_at":null,"tle_current":{"epoch":"2026-09-19T20:16:42.034080Z","epoch_age_seconds":74973,"freshness":"FRESH","line1":"1 61910U 24206A   26262.84493095 -.00000366  00000+0  00000+0 0  9995","line2":"2 61910   0.0236 226.3512 0000834 286.5491 266.0712  1.00272901  6788","mean_motion":1.00272901,"eccentricity":8.34e-5,"inclination_deg":0.0236,"raan_deg":226.3512,"arg_perigee_deg":286.5491,"mean_anomaly_deg":266.0712,"bstar":0,"rev_number":678,"period_min":1436.0809208063,"perigee_km":35782.765596227,"apogee_km":35789.798621334,"semimajor_km":42164.41910878,"source":"CELESTRAK","updated_at":"2026-09-20T09:00:35.339324Z"}}}